Hourly Data Report for October 06, 2014

All times are specified in Local Standard Time (LST). Add 1 hour to adjust for Daylight Saving Time where and when it is observed.

OTTAWA INTL A
ONTARIO

45°19'00.000" N
75°40'00.000" W
114.90 m
6106001
71628
YOW

Download Data

Hourly Data (October 2014)
Hourly Data Report for October 6, 2014
Temp Definition
°C
Dew Point Temp Definition
°C
Rel Hum Definition
%
Wind Dir Definition
10's deg

Wind Spd Definition
km/h
Visibility Definition
km
Stn Press Definition
kPa
Hmdx Definition


Wind Chill Definition


Weather Definition


TIME
00:00 Legend Double Dagger 8.6 6.2 85 19 12 24.1 99.75     LegendNANA
01:00 Legend Double Dagger 8.5 6.3 86 18 13 24.1 99.77     Cloudy
02:00 Legend Double Dagger 7.3 6.3 93 18 4 24.1 99.75     LegendNANA
03:00 Legend Double Dagger 5.7 5.4 98 13 8 24.1 99.74     LegendNANA
04:00 Legend Double Dagger 6.1 5.2 94 14 14 24.1 99.73     Mostly Cloudy
05:00 Legend Double Dagger 5.8 4.1 89 15 15 24.1 99.73     LegendNANA
06:00 Legend Double Dagger 4.6 3.4 92 13 14 24.1 99.77     LegendNANA
07:00 Legend Double Dagger 6.2 3.9 85 13 15 24.1 99.78     Mostly Cloudy
08:00 Legend Double Dagger 7.1 3.5 78 13 17 24.1 99.80     LegendNANA
09:00 Legend Double Dagger 8.9 4.0 71 13 17 24.1 99.82     LegendNANA
10:00 Legend Double Dagger 11.1 4.1 62 18 22 24.1 99.82     Mostly Cloudy
11:00 Legend Double Dagger 10.4 4.6 67 17 19 24.1 99.86     Rain
12:00 Legend Double Dagger 9.2 6.7 84 15 16 24.1 99.84     Rain
13:00 Legend Double Dagger 9.4 8.0 91 14 14 24.1 99.74     Rain
14:00 Legend Double Dagger 11.9 8.2 78 15 16 24.1 99.71     LegendNANA
15:00 Legend Double Dagger 13.9 7.3 64 16 18 24.1 99.67     LegendNANA
16:00 Legend Double Dagger 14.7 7.1 60 18 15 24.1 99.69     Mainly Clear
17:00 Legend Double Dagger 12.4 7.5 72 15 12 24.1 99.71     LegendNANA
18:00 Legend Double Dagger 11.4 7.9 79 10 11 24.1 99.73     LegendNANA
19:00 Legend Double Dagger 11.7 7.6 76 7 13 24.1 99.72     Mostly Cloudy
20:00 Legend Double Dagger 11.2 7.7 79 8 15 24.1 99.71     LegendNANA
21:00 Legend Double Dagger 10.9 8.0 82 8 17 24.1 99.67     LegendNANA
22:00 Legend Double Dagger 12.3 8.0 75 14 18 24.1 99.70     Rain
23:00 Legend Double Dagger 11.2 9.5 89 11 13 16.1 99.59     Rain

Notes on Data Quality.

Legend

  • E = Estimated
  • M = Missing
  • NA = Not Available
  • ‡ = Partner data that is not subject to review by the National Climate Archives
Date modified: